Flag for Greece Weather past 2 weeks in Kalamata, Greece

Now
70 °F

Clear.


Feels Like: 70 °F
Forecast: 70 / 90 °F
Wind: No wind

Location: Kalamata Airport

Current Time: Aug 5, 2015 at 3:45:58 AM

Latest Report: Aug 5, 2015 at 12:50 AM


Visibility: 10 mi

Pressure: 29.83 "Hg

Humidity: 94%

Dew point: 68 °F

Location of KalamataLocation

Historic Weather in Kalamata — Graph

°F

Kalamata temperature yesterday

Maximum temperature yesterday: 90 °F (at 4:20 PM)
Minimum temperature yesterday: 68 °F (at 6:50 PM)
Average temperature yesterday: 78 °F

Past Weeks' High & Low Weather Summary

 TemperatureHumidityPressure
High102 °F (Jul 21, 4:20 PM)94% (Jul 22, 12:50 AM)29.98 "Hg (Jul 22, 12:50 AM)
Low64 °F (Jul 21, 5:50 AM)14% (Jul 21, 2:20 PM)29.68 "Hg (Jul 28, 4:50 AM)
Average83 °F63%29.79 "Hg
* Reported Jul 21 1:50 AM — Aug 5 12:50 AM, Kalamata, Weather by CustomWeather, © 2015

Note: Actual official high and low records may vary slightly from our data, if they occured in-between our weather recording intervals... More about our weather records

Advertising

Kalamata weather history for previous 24 hours

 ConditionsComfort  
Time TempWeatherWind HumidityBarometerVisibility
12:50 AM
Wed, Aug 5
70 °FClear.No wind94%29.83 "Hg10 mi
11:50 PM
Tue, Aug 4
70 °FClear.No wind94%29.83 "Hg10 mi
10:50 PM70 °FClear.No wind94%29.83 "Hg10 mi
10:20 PM70 °FPassing clouds.No wind94%29.83 "HgN/A
9:50 PM72 °FPassing clouds.No wind88%29.83 "HgN/A
9:20 PM73 °FBroken clouds.No wind83%29.83 "HgN/A
8:50 PM72 °FBroken clouds.No wind94%29.83 "HgN/A
8:20 PM72 °FBroken clouds.No wind94%29.83 "HgN/A
7:50 PM73 °FThunderstorms. Scattered clouds.No wind89%29.83 "HgN/A
7:20 PM70 °FThunderstorms. Scattered clouds.No wind94%29.83 "HgN/A
6:50 PM68 °FThunderstorms. Scattered clouds.7 mph94%29.83 "HgN/A
6:20 PM70 °FStrong thunderstorms. Scattered clouds.10 mph88%29.89 "Hg2 mi
5:50 PM73 °FStrong thunderstorms. Scattered clouds.12 mph83%29.86 "Hg5 mi
5:20 PM86 °FThunderstorms. Scattered clouds.5 mph52%29.83 "HgN/A
4:50 PM90 °FScattered clouds.No wind52%29.83 "HgN/A
4:20 PM90 °FScattered clouds.5 mph52%29.83 "HgN/A
3:50 PM88 °FScattered clouds.No wind59%29.83 "HgN/A
3:20 PM79 °FThunderstorms. Scattered clouds.No wind70%29.86 "HgN/A
2:50 PM84 °FThunderstorms. Scattered clouds.No wind70%29.86 "HgN/A
2:20 PM84 °FThunderstorms. Scattered clouds.6 mph62%29.86 "HgN/A
1:50 PM86 °FThunderstorms. Scattered clouds.9 mph62%29.86 "HgN/A
1:20 PM88 °FScattered clouds.9 mph62%29.86 "HgN/A
12:50 PM88 °FPassing clouds.8 mph62%29.86 "Hg5 mi
12:20 PM88 °FPassing clouds.6 mph62%29.86 "Hg5 mi
11:50 AM88 °FPassing clouds.5 mph62%29.86 "Hg4 mi
11:20 AM88 °FPassing clouds.5 mph62%29.86 "Hg4 mi
10:50 AM86 °FScattered clouds.No wind66%29.86 "Hg4 mi
10:20 AM86 °FScattered clouds.No wind66%29.86 "Hg4 mi
9:50 AM84 °FScattered clouds.No wind70%29.86 "Hg4 mi
9:20 AM82 °FScattered clouds.No wind74%29.86 "Hg4 mi
8:50 AM79 °FScattered clouds.No wind79%29.86 "Hg4 mi
8:20 AM77 °FPassing clouds.No wind83%29.86 "Hg4 mi
7:50 AM73 °FPassing clouds.No wind94%29.86 "Hg5 mi
7:20 AM73 °FPassing clouds.No wind89%29.86 "Hg5 mi
6:50 AM72 °FPassing clouds.No wind94%29.86 "Hg5 mi
6:20 AM72 °FPassing clouds.No wind94%29.86 "Hg5 mi
5:50 AM73 °FClear.No wind89%29.86 "Hg10 mi
4:50 AM73 °FClear.No wind94%29.86 "Hg10 mi
3:50 AM73 °FClear.No wind94%29.86 "Hg10 mi
Weather by CustomWeather, © 2015

See weather overviewHow to use our weather pages